FENGYUN 1C DEB, 30080

Orbit data source: Space-Track

FENGYUN 1C DEB, 30080 is space debris in SSO originally from a launch on Mon, 10 May 1999 UTC launched from the Taiyaun Space Center, China (TSC). Fengyun 1C debris stems from the Chinese weather satellite Fengyun-1C, which was intentionally destroyed by a Chinese anti-satellite missile in 2007. This event dramatically increased the amount of space debris, with thousands of trackable fragments posing hazards to satellites and human spaceflight. The Fengyun 1C debris cloud has become a focal point in discussions about space sustainability and the need for international regulations to prevent the creation of new debris.

Loading next visibility...
Identifier
30080, 1999-025QH
Orbit
SSO
Country
Flag of CNCN / PRC
Related business
Manufacturer
Unknown
Mission
Spacecraft
Bus & Motor
Unknown
Mass
Unknown
Launch date (UTC)
1999-05-10 (27 years ago)
Launch vehicle
Unknown
Launch site
Taiyaun Space Center, China (TSC)
Object type
Payload
Rocket body
Debris
Shape & HBR
Unknown shape, 0.2 m
Radar Cross Section
Medium (>0.1 m² and <1 m²)

Expand to show TLE details & history
Last TLE update: 13 hours ago

TLE from 13 hours ago
0 FENGYUN 1C DEB
1 30080U 99025QH  26263.44245112  .00000199  00000-0  12449-3 0  9990
2 30080  98.7295 240.6701 0132486 341.1969 149.6921 14.11013504 12106
Epoch: 2026-09-20T10:37Z
TLE epoch observation values (Epoch: 2026-09-20T10:37:07.776Z)
Latitude
47.71095°
Longitude
-88.28115°
Altitude
946.372 km
Speed
7.341 km/s
True Right ascension
04h 41m 21s
True Declination
47° 32' 39"
Sunlit
Object was in daylight at epoch
Visualization orbit readout
Latitude
Unknown
Longitude
Unknown
Altitude
Unknown
Speed
Unknown
Apparent Right ascension
Unknown
Apparent Declination
Unknown
Sunlit
N/A
Visualization observer readout
Local Sidereal Time
16:37:27
Azimuth
Unknown
Elevation
Unknown
Doppler factor
Unknown
Orbital elements
Apogee altitude
948.88 km
Perigee altitude
757.273 km
Semi-major axis
7,231.213 km
Eccentricity
0.01325
Inclination
98.7295°
RAAN
240.6701°
Arg. of periapsis
341.1969°
True anomaly
150.44742°
Mean anomaly
149.6921°
Eccentric anomaly
150.07083°
Mean motion
3.52961 °/min
Orbital period
101.99 mins
BSTAR
0.00012449
Loading maneuver chart data...
Computing Atmospheric mass density...

Documentation

Showing up to 5 results
|